Date String (YYYY-MM-DD hh:mm:ss) UTC,Instrument flags,Ambient pressure (hPa),Sample flow (lpm),Bypass flow (lpm),Sample temperature (°C),Ambient temperature (°C),ASC tube jacket temperature (°C),LED temperature (°C),Box temperature (°C),Sample RH (%),Span deviation,Mass concentration (μg/m³),Mass concentration (μg/m³),Mass concentration (μg/m³)
DateTimeUTC,F1_M11,P_M11,Q1_M11,Q2_M11,T1_M11,T2_M11,T3_M11,T4_M11,T5_M11,U1_M11,ZSPAN_M11,X0_M11,X2_M11,X1_M11
2022-02-14 03:00:00,,0828.9,5.02,0.00,24.3,23.6,00.0,33.2,26.1,04.8,0000.0,0001.68,0000.89,0000.61
2022-02-14 03:01:00,,0828.9,4.99,0.00,24.3,23.6,00.0,33.2,26.1,04.8,0000.0,0001.55,0000.88,0000.61
2022-02-14 03:02:00,,0828.8,5.01,0.00,24.3,23.5,00.0,33.2,26.1,04.8,0000.0,0001.50,0000.86,0000.60
2022-02-14 03:03:00,,0828.8,4.99,0.00,24.3,23.5,00.0,33.2,26.1,04.8,0000.0,0001.49,0000.85,0000.60
2022-02-14 03:04:00,,0828.9,5.01,0.00,24.3,23.6,00.0,33.3,26.1,04.8,0000.0,0001.55,0000.86,0000.61
2022-02-14 03:05:00,,0828.9,4.99,0.00,24.3,23.6,00.0,33.2,26.1,04.8,0000.0,0001.60,0000.88,0000.61
2022-02-14 03:06:00,,0829.0,5.00,0.00,24.3,23.5,00.0,33.3,26.2,04.8,0000.0,0001.66,0000.91,0000.60
2022-02-14 03:07:00,,0829.3,5.01,0.00,24.3,23.6,00.0,33.3,26.2,04.7,0000.0,0001.60,0000.90,0000.59
2022-02-14 03:08:00,,0829.2,4.98,0.00,24.3,23.6,00.0,33.3,26.1,04.7,0000.0,0001.68,0000.94,0000.58
2022-02-14 03:09:00,,0829.2,5.00,0.00,24.3,23.5,00.0,33.3,26.1,04.6,0000.0,0001.75,0000.96,0000.58
2022-02-14 03:10:00,,0829.3,5.00,0.00,24.3,23.5,00.0,33.3,26.1,04.6,0000.0,0001.55,0000.91,0000.57
2022-02-14 03:11:00,,0829.3,4.99,0.00,24.3,23.5,00.0,33.3,26.1,04.6,0000.0,0001.50,0000.89,0000.56
2022-02-14 03:12:00,,0829.3,5.01,0.00,24.2,23.5,00.0,33.2,26.0,04.7,0000.0,0001.48,0000.88,0000.57
2022-02-14 03:13:00,,0829.3,4.99,0.00,24.2,23.4,00.0,33.2,26.0,04.8,0000.0,0001.55,0000.90,0000.57
2022-02-14 03:14:00,,0829.3,5.01,0.00,24.2,23.5,00.0,33.2,26.0,04.7,0000.0,0001.74,0000.91,0000.56
2022-02-14 03:15:00,,0829.2,4.99,0.00,24.2,23.5,00.0,33.2,26.1,04.7,0000.0,0001.77,0000.92,0000.55
2022-02-14 03:16:00,,0829.2,5.01,0.00,24.3,23.5,00.0,33.2,26.1,04.9,0000.0,0001.71,0000.90,0000.55
2022-02-14 03:17:00,,0829.3,4.98,0.00,24.3,23.5,00.0,33.2,26.1,04.9,0000.0,0001.70,0000.90,0000.55
2022-02-14 03:18:00,,0829.0,5.01,0.00,24.3,23.5,00.0,33.2,26.1,04.8,0000.0,0001.66,0000.89,0000.56
2022-02-14 03:19:00,,0828.9,4.98,0.00,24.3,23.5,00.0,33.2,26.1,05.0,0000.0,0001.57,0000.85,0000.56
2022-02-14 03:20:00,,0828.9,5.01,0.00,24.3,23.5,00.0,33.2,26.0,05.2,0000.0,0001.58,0000.86,0000.57
2022-02-14 03:21:00,,0829.0,4.99,0.00,24.2,23.5,00.0,33.2,26.0,05.2,0000.0,0001.66,0000.89,0000.57
2022-02-14 03:22:00,,0828.8,5.01,0.00,24.2,23.4,00.0,33.2,26.0,05.2,0000.0,0001.68,0000.90,0000.58
2022-02-14 03:23:00,,0828.8,5.01,0.00,24.2,23.4,00.0,33.2,26.0,05.4,0000.0,0001.67,0000.90,0000.58
2022-02-14 03:24:00,,0828.8,4.99,0.00,24.2,23.3,00.0,33.2,26.0,05.5,0000.0,0001.62,0000.89,0000.58
2022-02-14 03:25:00,,0828.8,5.01,0.00,24.2,23.3,00.0,33.2,26.0,05.4,0000.0,0001.52,0000.90,0000.59
2022-02-14 03:26:00,,0828.9,5.00,0.00,24.2,23.3,00.0,33.2,26.0,05.5,0000.0,0001.53,0000.91,0000.60
2022-02-14 03:27:00,,0828.9,5.00,0.00,24.2,23.3,00.0,33.2,26.0,05.5,0000.0,0001.60,0000.94,0000.61
2022-02-14 03:28:00,,0829.0,5.00,0.00,24.2,23.3,00.0,33.2,26.0,05.5,0000.0,0001.52,0000.92,0000.62
2022-02-14 03:29:00,,0828.9,4.99,0.00,24.2,23.4,00.0,33.2,26.0,05.4,0000.0,0001.46,0000.91,0000.63
2022-02-14 03:30:00,,0829.0,5.02,0.00,24.2,23.4,00.0,33.2,26.0,05.4,0000.0,0001.53,0000.92,0000.63
2022-02-14 03:31:00,,0829.0,4.99,0.00,24.2,23.4,00.0,33.2,26.0,05.3,0000.0,0001.49,0000.92,0000.63
2022-02-14 03:32:00,,0828.9,5.01,0.00,24.2,23.4,00.0,33.2,26.0,05.3,0000.0,0001.56,0000.95,0000.64
2022-02-14 03:33:00,,0829.0,4.99,0.00,24.2,23.4,00.0,33.2,26.0,05.3,0000.0,0001.75,0000.97,0000.64
2022-02-14 03:34:00,,0829.0,4.99,0.00,24.2,23.5,00.0,33.2,26.0,05.2,0000.0,0001.92,0000.99,0000.66
2022-02-14 03:35:00,,0828.9,5.01,0.00,24.2,23.5,00.0,33.2,26.0,05.1,0000.0,0001.99,0001.00,0000.67
2022-02-14 03:36:00,,0829.0,4.99,0.00,24.2,23.5,00.0,33.2,26.0,05.1,0000.0,0001.88,0000.97,0000.66
2022-02-14 03:37:00,,0829.0,5.02,0.00,24.2,23.4,00.0,33.2,26.0,05.1,0000.0,0001.85,0000.96,0000.66
2022-02-14 03:38:00,,0828.9,4.99,0.00,24.2,23.4,00.0,33.2,26.0,05.2,0000.0,0001.82,0000.95,0000.67
2022-02-14 03:39:00,,0828.9,5.00,0.00,24.2,23.4,00.0,33.2,26.0,05.3,0000.0,0001.98,0000.96,0000.66
2022-02-14 03:40:00,,0829.0,4.99,0.00,24.2,23.4,00.0,33.2,26.0,05.3,0000.0,0002.01,0000.97,0000.67
2022-02-14 03:41:00,,0829.0,5.02,0.00,24.2,23.4,00.0,33.2,26.0,05.3,0000.0,0002.16,0000.97,0000.69
2022-02-14 03:42:00,,0829.0,4.99,0.00,24.2,23.4,00.0,33.2,26.0,05.3,0000.0,0002.17,0000.96,0000.70
2022-02-14 03:43:00,,0828.9,5.00,0.00,24.2,23.4,00.0,33.2,26.0,05.2,0000.0,0002.15,0000.94,0000.71
2022-02-14 03:44:00,,0829.0,5.01,0.00,24.2,23.4,00.0,33.2,26.1,05.2,0000.0,0001.94,0000.94,0000.73
2022-02-14 03:45:00,,0828.9,4.99,0.00,24.2,23.4,00.0,33.2,26.1,05.2,0000.0,0001.75,0000.91,0000.72
2022-02-14 03:46:00,,0828.9,5.00,0.00,24.2,23.4,00.0,33.2,26.0,05.1,0000.0,0001.69,0000.91,0000.72
2022-02-14 03:47:00,,0828.8,5.01,0.00,24.2,23.4,00.0,33.2,26.0,05.0,0000.0,0001.76,0000.94,0000.73
2022-02-14 03:48:00,,0828.9,4.99,0.00,24.2,23.3,00.0,33.2,26.0,05.2,0000.0,0001.80,0000.95,0000.73
2022-02-14 03:49:00,,0829.0,5.01,0.00,24.2,23.3,00.0,33.2,26.0,05.2,0000.0,0001.75,0000.93,0000.73
2022-02-14 03:50:00,,0828.8,5.00,0.00,24.2,23.3,00.0,33.1,26.0,05.1,0000.0,0001.57,0000.90,0000.72
2022-02-14 03:51:00,,0828.8,5.00,0.00,24.1,23.3,00.0,33.1,26.0,05.0,0000.0,0001.61,0000.92,0000.71
2022-02-14 03:52:00,,0828.9,5.00,0.00,24.1,23.3,00.0,33.1,26.0,04.9,0000.0,0001.42,0000.91,0000.70
2022-02-14 03:53:00,,0829.2,5.01,0.00,24.1,23.3,00.0,33.1,25.9,05.1,0000.0,0001.32,0000.89,0000.69
2022-02-14 03:54:00,,0829.0,5.00,0.00,24.1,23.3,00.0,33.1,25.9,05.2,0000.0,0001.23,0000.86,0000.68
2022-02-14 03:55:00,,0828.9,4.99,0.00,24.1,23.3,00.0,33.1,25.9,05.3,0000.0,0001.55,0000.88,0000.69
2022-02-14 03:56:00,,0828.8,5.00,0.00,24.1,23.3,00.0,33.1,25.9,05.3,0000.0,0001.76,0000.91,0000.70
2022-02-14 03:57:00,,0828.9,5.02,0.00,24.1,23.4,00.0,33.1,25.9,05.4,0000.0,0002.29,0000.94,0000.70
2022-02-14 03:58:00,,0829.0,4.99,0.00,24.1,23.4,00.0,33.1,26.0,05.5,0000.0,0002.61,0000.94,0000.70
2022-02-14 03:59:00,,0828.9,5.02,0.00,24.2,23.4,00.0,33.1,26.0,05.6,0000.0,0002.58,0000.92,0000.69
